Powrót do katalogu

STARLINK-33720

AktywnyŁącznośćVLEO
NORAD 63468·PAYLOAD·🇺🇸 United States

Wystrzelony Apr 6, 2025 z Cape Canaveral Space Force Station

Loading…

Następne Przeloty (najbliższe 24 godziny)

TLE

ŚwieżeSource: CelesTrak SupGP

Epoka: Sep 14, 2026, 22:51 UTC

1 63468C 25070J   26257.95256944  .00034833  00000+0  12621-2 0  2578
2 63468  43.0019 271.0064 0001484 264.9503   0.9006 15.27549041    16

Śledź STARLINK-33720 w czasie rzeczywistym z AllMySat

Download on the App Store